User: anonymous   Login
Location: Dammartin
(48.9032°N, 1.6195°E)
Time: 19:45:28
(UTC+00:00)
Language:

MINOTAUR 4 R/B - Orbit

View from above orbital plane
View from above orbital plane
View from above satellite
View from above satellite

Ground track
Ground track

The orbit data is extracted from the following two-line orbital elements,

1 37169U 10048B   24140.65296468  .00078412  00000-0  85113-3 0  9999
2 37169  97.9439  28.5358 0002052 163.3962 196.7362 15.63251066759694
Epoch (UTC): 19 May 2024 15:40:16
Eccentricity: 0.0002052
inclination: 97.9439°
perigee height: 377 km
apogee height: 379 km
right ascension of ascending node: 28.5358°
argument of perigee: 163.3962°
revolutions per day: 15.63251066
mean anomaly at epoch: 196.7362°
orbit number at epoch: 75969

The dashed part of the orbit path shows where the satellite is in the earth's shadow,  

DLR